Regional Weather Roundup
Issued by NWS

Home | Current Version | Previous Version | Graphics & Text | Print | Product List | Glossary On
Versions: 1 2 3 4 5 6 7 8 9 10 11 12 13 14 15 16 17 18 19 20 21 22 23 24 25 26 27 28 29 30 31 32 33 34 35 36 37 38 39 40 41 42 43 44 45 46 47 48 49 50
000
ASUS45 KSLC 202310
RWRUT

UTAH REGIONAL WEATHER ROUNDUP
NATIONAL WEATHER SERVICE SALT LAKE CITY UT
400 PM MST SAT DEC 20 2014

UTZ001>011-023>025-210000-

NORTHERN UTAH

CITY           SKY/WX    TMP DP  RH WIND       PRES   REMARKS
BRIGHAM CITY   CLOUDY    40  35  84 CALM      30.07R
HILL AFB       CLOUDY    37  37 100 S10       30.06S WCI  30
LOGAN          CLOUDY    40  35  83 CALM      30.04S
OGDEN          LGT RAIN  39  36  89 S9        30.06S WCI  33
PROVO AIRPORT  CLOUDY    37  34  87 E3        30.10R
SALT LAKE CITY CLOUDY    41  35  79 SE6       30.06F
VERNAL         LGT SNOW  29  27  92 CALM      30.09F FOG
WENDOVER       CLOUDY    37  28  70 CALM      30.05F
HEBER CITY     CLOUDY    36  32  87 CALM      30.05S
WEST JORDAN    CLOUDY    37  37 100 S15       30.06F WCI  28

$$

UTZ012>022-026-027-210000-

SOUTHERN/CENTRAL UTAH

CITY           SKY/WX    TMP DP  RH WIND       PRES   REMARKS
BLANDING       CLOUDY    34  31  90 CALM      30.18S
BRYCE CANYON   CLOUDY    32  25  75 SE10      30.09R WCI  24
CEDAR CITY     CLOUDY    40  30  67 SW9       30.09R WCI  34
DELTA          CLOUDY    40  33  75 E6        30.08S
MILFORD        CLOUDY    42  29  59 S13       30.07R
MOAB/CYNLANDS  CLOUDY    37  32  82 N7        30.12S WCI  32
PRICE          CLOUDY    32  25  75 CALM      30.10S
ST GEORGE      CLOUDY    48  32  53 CALM      30.13F
KANAB            N/A     43  32  65 SE3       30.14R

$$

REGIONAL REPORTS     COLORADO/ARIZONA

CITY           SKY/WX    TMP DP  RH WIND       PRES   REMARKS
CRAIG, CO      CLOUDY    32  25  75 NE6       30.05F WCI  26
GRAND JUNCTION CLOUDY    37  28  70 NW5       30.12S WCI  33
RIFLE          CLOUDY    35  23  61 CALM      30.10S
MONTROSE       CLOUDY    37  22  54 N7        30.11R WCI  32
CORTEZ         CLEAR     38  28  67 W7        30.10S WCI  33
PAGE, AZ       MOSUNNY   42  29  59 CALM      30.13S
GRAND CANYON   MOSUNNY   44  24  45 W7        30.12R
KINGMAN        MOSUNNY   54  29  38 SW10      30.06F
FLAGSTAFF      MOSUNNY   43  27  53 SW8       30.10F

$$

REGIONAL REPORTS    NEVADA/IDAHO/WYOMING

CITY           SKY/WX    TMP DP  RH WIND       PRES   REMARKS
LAS VEGAS, NV  PTSUNNY   56  37  49 CALM      30.06S
ELY            CLOUDY    39  31  72 NE5       30.08F
ELKO           CLOUDY    38  35  89 S7        30.06R WCI  33
POCATELLO, ID  CLOUDY    41  34  76 S16       30.00S
BURLEY         CLOUDY    41  34  76 SW12      29.97S
EVANSTON, WY   MOCLDY    31  29  92 SW13      30.01R WCI  21
ROCK SPRINGS   LGT SNOW  30  29  96 SW17      30.00R VSB 3/4 WCI  18
KEMMERER       CLOUDY    32  28  86 W12G18    30.00S WCI  23

$$


USA.gov is the U.S. government's official web portal to all federal, state and local government web resources and services.